Terug naar catalogus

SL-8 R/B

ActiefPO
NORAD 11586·ROCKET BODY·🇷🇺 Russia

Gelanceerd Oct 16, 1979 vanaf Plesetsk Cosmodrome

Loading…

Volgende Passages (komende 24 uur)

TLE

VersSource: Space-Track

Epoch: Sep 14, 2026, 18:48 UTC

1 11586U 79090B   26257.78356679 -.00000012  00000-0 -26493-4 0  9992
2 11586  82.9398  74.9658 0028351  92.0907 268.3499 13.79327508339884

Volg SL-8 R/B in realtime met AllMySat

Download on the App Store